This is the latest recevied weather packets stored in our database for station/object NN5DX-13. If no packets are shown the sender has not sent any weather packets the latest 10 day(s).
| Time | Temp. | Humidity | Pressure | Rain* | Wind** | Luminosity | Snow |
|---|---|---|---|---|---|---|---|
| 1788117921 | 37.78° C | 27% | 1015.7 hPa | 0 mm | - | - | - |
| 1788117621 | 37.78° C | 26% | 1015.7 hPa | 0 mm | - | - | - |
| 1788117321 | 37.78° C | 27% | 1015.8 hPa | 0 mm | - | - | - |
| 1788117021 | 37.22° C | 28% | 1015.7 hPa | 0 mm | - | - | - |
| 1788116721 | 36.11° C | 31% | 1015.4 hPa | 0 mm | - | - | - |
| 1788116421 | 35.56° C | 31% | 1015.7 hPa | 0 mm | - | - | - |
| 1788116119 | 36.11° C | 30% | 1015.7 hPa | 0 mm | - | - | - |
| 1788115821 | 36.67° C | 29% | 1016 hPa | 0 mm | - | - | - |
| 1788115521 | 36.67° C | 29% | 1016.1 hPa | 0 mm | - | - | - |
| 1788115221 | 37.22° C | 28% | 1016.4 hPa | 0 mm | - | - | - |
| 1788114921 | 37.78° C | 28% | 1016.5 hPa | 0 mm | - | - | - |
| 1788114621 | 37.22° C | 28% | 1016.5 hPa | 0 mm | - | - | - |
| 1788114321 | 37.78° C | 27% | 1016.7 hPa | 0 mm | - | - | - |
| 1788114021 | 37.22° C | 28% | 1016.9 hPa | 0 mm | - | - | - |
| 1788113721 | 37.22° C | 28% | 1016.8 hPa | 0 mm | - | - | - |
| 1788113421 | 37.22° C | 28% | 1016.9 hPa | 0 mm | - | - | - |
| 1788113121 | 36.67° C | 29% | 1017 hPa | 0 mm | - | - | - |
| 1788112821 | 36.67° C | 29% | 1017.1 hPa | 0 mm | - | - | - |
| 1788112521 | 36.67° C | 29% | 1017.3 hPa | 0 mm | - | - | - |
| 1788112221 | 36.67° C | 30% | 1017.3 hPa | 0 mm | - | - | - |
| 1788111921 | 36.11° C | 30% | 1017.3 hPa | 0 mm | - | - | - |
| 1788111621 | 36.11° C | 31% | 1017.5 hPa | 0 mm | - | - | - |
| 1788111321 | 36.11° C | 30% | 1017.4 hPa | 0 mm | - | - | - |
| 1788111021 | 35.56° C | 31% | 1017.4 hPa | 0 mm | - | - | - |
| 1788110721 | 35° C | 32% | 1017.4 hPa | 0 mm | - | - | - |
* Rain latest hour (hover to see other rain measurements)
** Current wind speed in m/s (hover to see current wind gust speed)